Regional Weather Roundup
Issued by NWS

Home | Current Version | Previous Version | Graphics & Text | Print | Product List | Glossary On
Versions: 1 2 3 4 5 6 7 8 9 10 11 12 13 14 15 16 17 18 19 20 21 22 23 24 25 26 27 28 29 30 31 32 33 34 35 36 37 38 39 40 41 42 43 44 45 46 47 48 49 50
283
ASUS43 KLMK 301110
RWRKY
KENTUCKY REGIONAL WEATHER ROUNDUP
NATIONAL WEATHER SERVICE LOUISVILLE KY
700 AM EDT SAT APR 30 2016

NOTE "FAIR" INDICATES FEW OR NO CLOUDS BELOW 12,000 FEET
WITH NO SIGNIFICANT WEATHER AND/OR OBSTRUCTIONS TO VISIBILITY.

KYZ001>023-026-027-061>063-070>075-301200-
WESTERN AND SOUTH CENTRAL KENTUCKY

CITY           SKY/WX    TMP DP  RH WIND       PRES   REMARKS
PADUCAH        LGT RAIN  61  59  93 E3        29.86S FOG
HENDERSON      CLOUDY    61  54  77 SE5       29.90R
OWENSBORO      LGT RAIN  62  55  77 E8        29.89F
HOPKINSVILLE   HVY RAIN  61  61 100 SE3       29.91R FOG
BOWLING GREEN  CLOUDY    63  55  75 E6        29.89F
GLASGOW        CLOUDY    61  53  73 E6        29.90F
$$

KYZ024-025-028>034-038-045-046-053-301200-
NORTH CENTRAL KENTUCKY

CITY           SKY/WX    TMP DP  RH WIND       PRES   REMARKS
LOUISVILLE/SDF CLOUDY    61  53  75 E8        29.95F
LOUISVILLE/LOU CLOUDY    60  52  74 E7        29.96F
FORT KNOX      CLOUDY    59  53  82 E9        29.91F
$$

KYZ035>037-039>044-047>052-055>060-089>105-301200-
NORTHEAST KENTUCKY

CITY           SKY/WX    TMP DP  RH WIND       PRES   REMARKS
LEXINGTON      CLOUDY    59  51  75 E12       29.99R
COVINGTON      CLOUDY    53  47  79 E8        30.02S
FRANKFORT      CLOUDY    59  50  72 E9        29.97S
$$

KYZ054-064>069-076>088-106>120-301200-
SOUTHEAST KENTUCKY

CITY           SKY/WX    TMP DP  RH WIND       PRES   REMARKS
JACKSON        CLOUDY    57  50  77 VRB3      30.00S
LONDON         CLOUDY    60  51  72 NE5       29.98R
SOMERSET       CLOUDY    59  50  72 CALM      29.97S
MIDDLESBORO    MOCLDY    56  55  95 CALM      29.99R
MONTICELLO     PTSUNNY   61  54  77 NW5       29.96F
$$





USA.gov is the U.S. government's official web portal to all federal, state and local government web resources and services.